Weather in Karaulnaya Gora

Russia / Republic of Tatarstan     54°32′03″N   50°40′40″E
temp.,
°C
wind,
m/s
gust,
m/s
humid.,
%
clouds,
%
prec.,
mm/h
press.,
hPa
HPBL,
m
28 september, tue
tue2800:00+4ene61084100 0.1 1019895
03:00+4ne6975100 0.1 10201028
06:00+2ne613815 0.0 1022482
09:00+5ne7106612 0.0 1023860
12:00+8ne794917 0.0 10231416
15:00+9ne784356 0.0 10241664
18:00+6nne4105590 0.0 1026369
21:00+4nne41064100 0.0 1027292
29 september, wed
wed2900:00+3nne4971100 0.0 1027225
03:00+3nne387554 0.0 1028198
06:00+1nne378246 0.0 1029154
09:00+6ne47554 0.0 1029875
12:00+9nne454471 0.0 10291667
15:00+9nne564374 0.0 10281740
18:00+5n33615 0.0 102938
21:00+4nne2266100 0.0 102915
30 september, thu
thu3000:00+3nne11695 0.0 102910
03:00+2n11746 0.0 103010
06:00+2n117646 0.0 103010
09:00+7n23585 0.0 1030429
12:00+10nnw235073 0.0 10301549
15:00+9nw3460100 0.1 1029746
18:00+8wnw3771100 0.1 1029207
21:00+7w3781100 0.1 1029294
1 october, fri
fri100:00+7wnw3588100 0.0 1029298
03:00+7w3690100 0.0 1029272
06:00+7w3689100 0.0 1029220
09:00+9wnw3581100 0.0 1029355
12:00+13wnw236756 0.0 1030804
15:00+14wnw3457100 0.0 10291231
18:00+12nw357096 0.0 1030133
21:00+10nw347779 0.0 103091
2 october, sat
sat200:00+9wnw248072 0.0 103081
03:00+7nw34905 0.0 103160
06:00+6nw229113 0.0 103121
09:00+11nnw236958 0.0 1032382
12:00+14nnw335559 0.0 10311216
15:00+14nnw335224 0.0 10311267
18:00+10n22695 0.0 103217
21:00+8n11755 0.0 103310